Flag for U.S.A. Weather past 2 weeks in Appleton, Wisconsin, U.S.A.

Now
66 °F

Fog.


Feels Like: 66 °F
Forecast: 67 / 85 °F
Wind: 5 mph from South

Location: Appleton / Outagamie

Current Time: Sep 1, 2015 at 1:28:47 AM

Latest Report: Sep 1, 2015 at 12:55 AM


Visibility: 5 mi

Pressure: 30.00 "Hg

Humidity: 94%

Dew point: 64 °F

Location of AppletonLocation

Historic Weather in Appleton — Graph

°F

Appleton temperature yesterday

Maximum temperature yesterday: 79 °F (at 3:45 PM)
Minimum temperature yesterday: 61 °F (at 12:15 AM)
Average temperature yesterday: 66 °F

Past Weeks' High & Low Weather Summary

 TemperatureHumidityPressure
High82 °F (Aug 17, 12:45 PM)100% (Aug 18, 10:45 PM)30.18 "Hg (Aug 18, 10:45 PM)
Low52 °F (Aug 21, 4:35 AM)37% (Aug 22, 2:45 PM)29.53 "Hg (Aug 19, 9:45 AM)
Average63 °F81%29.95 "Hg
* Reported Aug 17 12:15 AM — Sep 1 12:15 AM, Appleton, Weather by CustomWeather, © 2015

Note: Actual official high and low records may vary slightly from our data, if they occured in-between our weather recording intervals... More about our weather records

Advertising

Appleton weather history for previous 24 hours

 ConditionsComfort  
Time TempWeatherWind HumidityBarometerVisibility
12:15 AM
Tue, Sep 1
68 °FFog.3 mph100%30.00 "Hg5 mi
11:55 PM
Mon, Aug 31
68 °FFog.6 mph100%30.00 "Hg5 mi
9:45 PM70 °FPassing clouds.5 mph94%30.00 "Hg10 mi
8:45 PM70 °FPassing clouds.5 mph88%29.99 "Hg7 mi
7:45 PM72 °FScattered clouds.5 mph83%29.99 "Hg7 mi
6:45 PM75 °FScattered clouds.6 mph74%29.98 "Hg7 mi
5:45 PM79 °FScattered clouds.9 mph65%29.99 "Hg10 mi
4:45 PM79 °FScattered clouds.12 mph65%29.98 "Hg10 mi
3:45 PM79 °FScattered clouds.9 mph65%29.99 "Hg10 mi
2:45 PM75 °FPartly sunny.9 mph69%30.01 "Hg10 mi
1:45 PM75 °FPartly sunny.9 mph69%30.02 "Hg10 mi
12:45 PM73 °FPartly sunny.12 mph74%30.04 "Hg10 mi
11:45 AM72 °FPartly sunny.7 mph88%30.05 "Hg7 mi
10:45 AM70 °FLow clouds.6 mph88%30.05 "Hg7 mi
9:45 AM66 °FMostly cloudy.8 mph100%30.03 "Hg7 mi
8:45 AM64 °FFog.7 mph100%30.03 "Hg5 mi
7:45 AM63 °FFog.7 mph100%30.03 "Hg4 mi
6:45 AM61 °FFog.3 mph100%30.02 "Hg1 mi
5:45 AM61 °FFog.No wind100%30.01 "Hg0 mi
5:15 AM61 °FFog.3 mph100%30.01 "Hg0 mi
4:55 AM61 °FFog.5 mph100%30.01 "Hg0 mi
4:15 AM63 °FFog.5 mph100%30.01 "Hg0 mi
3:55 AM61 °FFog.5 mph100%30.01 "Hg4 mi
3:35 AM61 °FFog.6 mph100%30.01 "Hg5 mi
3:15 AM61 °FFog.6 mph100%30.01 "Hg5 mi
2:55 AM61 °FClear.7 mph100%30.01 "Hg7 mi
2:15 AM61 °FClear.6 mph100%29.99 "Hg10 mi
1:55 AM61 °FClear.6 mph100%29.99 "Hg10 mi
1:35 AM61 °FClear.6 mph100%29.99 "Hg10 mi
1:15 AM61 °FClear.6 mph100%29.99 "Hg10 mi
Weather by CustomWeather, © 2015

See weather overviewHow to use our weather pages